Location: Hamburg
(53.5500°N, 10.0000°E)
Time: 13:45:40
(UTC+02:00)

Vanguard 1 Rocket - Visible Passes

Search period start: 04 August 2015 00:00
Search period end: 14 August 2015 00:00
Orbit: 652 x 4226 km, 34.3° (Epoch: 31 July)

Date Brightness Start Highest point End Pass type
(mag) Time Alt. Az. Time Alt. Az. Time Alt. Az.
04 Aug 10.5 00:10:55 10° SSW 00:23:36 30° SE 00:42:42 10° E visible
04 Aug 10.6 02:33:33 10° SW 02:51:02 44° S 03:14:23 10° ESE visible
04 Aug 10.5 23:02:40 10° S 23:12:10 21° SE 23:26:30 10° E visible
05 Aug 10.4 01:22:58 10° SW 01:38:03 40° SSE 02:00:13 10° ESE visible
05 Aug 10.7 03:47:45 10° WSW 04:06:48 44° S 04:29:51 10° SE visible
05 Aug 10.5 21:57:42 10° SE 22:01:25 12° SE 22:07:20 10° ESE visible
06 Aug 10.4 00:13:13 10° SSW 00:25:47 33° SSE 00:45:16 10° E visible
06 Aug 10.5 02:36:22 10° WSW 02:53:21 44° S 03:16:37 10° ESE visible
06 Aug 10.9 05:02:54 10° W 05:22:33 38° SSW 05:43:49 10° SE visible
06 Aug 10.4 23:04:30 10° S 23:14:18 24° SE 23:29:30 10° E visible
07 Aug 10.4 01:25:42 10° SW 01:40:22 41° SSE 02:02:31 10° ESE visible
07 Aug 10.7 03:50:43 10° WSW 04:09:05 42° SSW 04:31:47 10° SE visible
07 Aug 10.4 21:57:45 10° SSE 22:03:31 15° SE 22:12:09 10° E visible
08 Aug 10.2 00:15:46 10° SSW 00:28:05 35° SSE 00:47:42 10° E visible
08 Aug 10.5 02:39:17 10° WSW 02:55:43 43° S 03:18:41 10° ESE visible
08 Aug 10.2 23:06:42 10° SSW 23:16:33 27° SE 23:32:14 10° E visible
09 Aug 10.3 01:28:34 10° SW 01:42:47 41° S 02:04:41 10° ESE visible
09 Aug 10.7 03:53:47 10° WSW 04:11:22 39° SSW 04:33:29 10° SE visible
09 Aug 10.3 21:59:02 10° SSE 22:05:43 17° SE 22:15:50 10° E visible
10 Aug 10.1 00:18:31 10° SW 00:30:29 36° SSE 00:50:00 10° ESE visible
10 Aug 10.5 02:42:20 10° WSW 02:58:08 41° S 03:20:35 10° SE visible
10 Aug 11.0 05:09:24 10° W 05:26:53 30° SSW 05:46:16 10° SSE visible
10 Aug 10.1 23:09:11 10° SSW 23:18:55 29° SSE 23:34:48 10° E visible
11 Aug 10.2 01:31:34 10° WSW 01:45:16 41° S 02:06:44 10° ESE visible
11 Aug 10.7 03:57:00 10° WSW 04:13:42 36° SSW 04:34:54 10° SSE visible
11 Aug 10.1 22:00:56 10° S 22:08:02 20° SE 22:19:00 10° E visible
12 Aug 10.0 00:21:24 10° SW 00:33:00 37° SSE 00:52:11 10° ESE visible
12 Aug 10.4 02:45:30 10° WSW 03:00:36 39° S 03:22:15 10° SE visible
12 Aug 11.0 05:13:02 10° W 05:29:05 26° SSW 05:46:45 10° S visible
12 Aug 9.9 23:11:54 10° SSW 23:21:24 31° SSE 23:37:13 10° ESE visible
13 Aug 10.2 01:34:40 10° WSW 01:47:50 40° S 02:08:37 10° ESE visible
13 Aug 10.7 04:00:24 10° WSW 04:16:03 31° SSW 04:35:57 10° SSE visible
13 Aug 10.0 22:03:14 10° S 22:10:28 22° SE 22:21:53 10° E visible
